Location: Hylvaty SDH
(49.9612°N, 16.4057°E)
Time: 19:44:28
(UTC+02:00)

Transit 4A - Pass Details

Date: 13 August 2020
Orbit: 862 x 982 km, 66.8° (Epoch: 28 September)

Event Time Altitude Azimuth Distance (km) Brightness Sun altitude
Rises 11:27:53 0° 252° (WSW) 3,522 10.8 49.9°
Reaches altitude 10° 11:30:38 10° 262° (W) 2,603 10.2 50.2°
Maximum altitude 11:36:02 32° 325° (NW) 1,537 9.1 50.7°
Drops below altitude 10° 11:41:37 10° 28° (NNE) 2,687 10.2 51.1°
Sets 11:44:30 0° 39° (NE) 3,652 10.9 51.4°
